This is the latest recevied weather packets stored in our database for station/object SQ5AAG-2. If no packets are shown the sender has not sent any weather packets the latest 10 day(s).
| Time | Temp. | Humidity | Pressure | Rain* | Wind** | Luminosity | Snow |
|---|---|---|---|---|---|---|---|
| 1787566275 | 16.11° C | 74% | 1005.7 hPa | 0 mm | - | - | - |
| 1787565974 | 16.67° C | 70% | 1005.7 hPa | 0 mm | - | - | - |
| 1787565674 | 17.78° C | 66% | 1005.7 hPa | 0 mm | - | - | - |
| 1787565416 | 18.89° C | 62% | 1005.7 hPa | 0 mm | - | - | - |
| 1787565373 | 18.89° C | 62% | 1005.7 hPa | 0 mm | - | - | - |
| 1787565105 | 19.44° C | 61% | 1005.5 hPa | 0 mm | - | - | - |
| 1787565074 | 19.44° C | 61% | 1005.5 hPa | 0 mm | - | - | - |
| 1787564773 | 19.44° C | 61% | 1005.6 hPa | 0 mm | - | - | - |
| 1787564205 | 20° C | 61% | 1005.7 hPa | 0 mm | - | - | - |
| 1787564173 | 20° C | 61% | 1005.7 hPa | 0 mm | - | - | - |
| 1787563873 | 20° C | 62% | 1005.6 hPa | 0 mm | - | - | - |
| 1787563603 | 19.44° C | 62% | 1005.8 hPa | 0 mm | - | - | - |
| 1787563572 | 19.44° C | 62% | 1005.8 hPa | 0 mm | - | - | - |
| 1787563271 | 19.44° C | 63% | 1005.9 hPa | 0 mm | - | - | - |
| 1787562971 | 19.44° C | 63% | 1006 hPa | 0 mm | - | - | - |
| 1787562671 | 19.44° C | 65% | 1005.9 hPa | 0 mm | - | - | - |
| 1787562370 | 18.89° C | 65% | 1005.8 hPa | 0 mm | - | - | - |
| 1787562071 | 18.33° C | 66% | 1005.8 hPa | 0 mm | - | - | - |
| 1787561770 | 18.33° C | 66% | 1005.9 hPa | 0 mm | - | - | - |
| 1787561470 | 17.78° C | 66% | 1005.9 hPa | 0 mm | - | - | - |
| 1787561169 | 17.78° C | 66% | 1005.9 hPa | 0 mm | - | - | - |
| 1787560914 | 17.78° C | 67% | 1005.9 hPa | 0 mm | - | - | - |
| 1787560869 | 17.78° C | 67% | 1005.9 hPa | 0 mm | - | - | - |
| 1787560569 | 17.78° C | 67% | 1005.7 hPa | 0 mm | - | - | - |
| 1787560268 | 17.78° C | 67% | 1005.7 hPa | 0 mm | - | - | - |
* Rain latest hour (hover to see other rain measurements)
** Current wind speed in m/s (hover to see current wind gust speed)